Location: Dackenheim
(49.5215°N, 8.1854°E)
Time: 16:34:34
(UTC+00:00)

Cosmos 158 Rocket - Pass Details

Date: 19 May 2025
Orbit: 694 x 787 km, 74.0° (Epoch: 16 June)

Event Time Altitude Azimuth Distance (km) Brightness Sun altitude
Rises 20:31:08 0° 200° (SSW) 3,229 6.9 -10.7°
Reaches altitude 10° 20:33:29 10° 200° (SSW) 2,317 6.2 -10.9°
Maximum altitude 20:38:47 87° 111° (ESE) 792 4.0 -11.5°
Drops below altitude 10° 20:44:10 10° 24° (NNE) 2,359 6.9 -12.0°
Sets 20:46:35 0° 24° (NNE) 3,292 7.7 -12.3°
